User: anonymous   Login
Location: Asheville, NC
(35.6000°N, 82.5500°W)
Time: 20:30:34
(UTC-04:00)
Language:

YUBILEINY - Orbit

View from above orbital plane
View from above orbital plane
View from above satellite
View from above satellite

Ground track
Ground track

The orbit data is extracted from the following two-line orbital elements,

1 32953U 08025A   18198.54289805  .00000019  00000-0  63146-4 0  9999
2 32953  82.5038 353.7961 0019834 142.0314 218.2168 12.43084302460548
Epoch (UTC): 17 July 2018 13:01:46
Eccentricity: 0.0019834
inclination: 82.5038°
perigee height: 1478 km
apogee height: 1509 km
right ascension of ascending node: 353.7961°
argument of perigee: 142.0314°
revolutions per day: 12.43084302
mean anomaly at epoch: 218.2168°
orbit number at epoch: 46054

The dashed part of the orbit path shows where the satellite is in the earth's shadow,  

DLR